Weather in Sosnovy

Russia / Krasnodar Krai     44°10′36″N   38°56′44″E
temp.,
°C
wind,
m/s
gust,
m/s
humid.,
%
clouds,
%
prec.,
mm/h
press.,
hPa
HPBL,
m
15 may, sat
sat1500:00+16ene22710 0.0 101219
03:00+14w11833 0.0 101311
06:00+15ne22823 0.0 101434
09:00+23ne22554 0.0 1014368
12:00+25ssw22505 0.0 10141030
15:00+23wsw225728 0.0 1013696
18:00+22n147211 0.1 1012266
21:00+16se11960 0.4 101226
16 may, sun
sun1600:00+13e11945 0.0 101213
03:00+15nne2397100 0.0 101148
06:00+16ne339745 0.0 100985
09:00+22ne3480100 0.0 1008409
12:00+26ne3560100 0.0 1006933
15:00+30ene46475 0.0 10041316
18:00+27ne49602 0.0 1003787
21:00+20ene22916 0.0 100334
17 may, mon
mon1700:00+17sse129722 0.0 100424
03:00+16e1194100 0.0 100411
06:00+16s3139297 0.0 1006601
09:00+17s41076100 0.0 1009581
12:00+19s51066100 0.0 1010636
15:00+18s4771100 0.0 1010524
18:00+16s378498 0.0 1012478
21:00+13sse119694 0.1 101319
18 may, tue
tue1800:00+13sse249999 0.0 1013113
03:00+13s2499100 0.0 1013140
06:00+14s259881 0.1 1014261
09:00+16s248676 0.1 1015507
12:00+19ssw44657 0.0 1015775
15:00+19ssw45684 0.0 1016717
18:00+16s24802 0.0 1016404
21:00+12se11970 0.0 101718
19 may, wed
wed1900:00+12ese11960 0.0 101713
03:00+12e11955 0.0 101714
06:00+13ene119215 0.0 101624
09:00+22se01535 0.0 1014546
12:00+24ssw224595 0.0 1013989
15:00+24sw22480 0.0 1011788
18:00+23nnw11695 0.0 101060
21:00+18ene229299 0.0 100921